User: anonymous   Login
Location: Unspecified
(0.0000°N, 0.0000°E)
Time: 21:55:57
(UTC+00:00)
Language:

STARLINK-3103 - Orbit

View from above orbital plane
View from above orbital plane
View from above satellite
View from above satellite

Ground track
Ground track

The orbit is defined by the following mean orbital elements,

1 49177U          26145.49997909 +.00000000 +00000-0 +10787-3 0 00001
2 49177  70.0007  60.7993 0003095 269.4963  90.5841 14.98325971    00
Epoch (UTC): 25 May 2026 11:59:58
Eccentricity: 0.0003095
inclination: 70.0007°
perigee height: 570 km
apogee height: 574 km
right ascension of ascending node: 60.7993°
argument of perigee: 269.4963°
revolutions per day: 14.98325971
mean anomaly at epoch: 90.5841°

The dashed part of the orbit path shows where the satellite is in the earth's shadow,  

DLR